Regional Weather Roundup
Issued by NWS

Home | Current Version | Previous Version | Text Only | Print | Product List | Glossary Off
Versions: 1 2 3 4 5 6 7 8 9 10 11 12 13 14 15 16 17 18 19 20 21 22 23 24 25 26 27 28 29 30 31 32 33 34 35 36 37 38 39 40 41 42 43 44 45 46 47 48 49 50

000
ASUS45 KCYS 201510
RWRWY

WYOMING REGIONAL WEATHER ROUNDUP
NATIONAL WEATHER SERVICE CHEYENNE WY
900 AM MDT WED AUG 20 2014

NOTE:  "FAIR" INDICATES FEW OR NO CLOUDS BELOW 12,000 FEET
WITH NO SIGNIFICANT WEATHER AND/OR OBSTRUCTIONS TO VISIBILITY.

WYZ001-201600-
YELLOWSTONE NATIONAL PARK

CITY           SKY/WX    TMP DP  RH WIND       PRES   REMARKS
LK YELLOWSTONE   N/A     51  45  79 CALM      30.14S
W YELLOWSTONE  NOT AVBL

$$
WYZ002>013-054>058-071-098>099-201600-
NORTHERN WYOMING

CITY           SKY/WX    TMP DP  RH WIND       PRES   REMARKS
JACKSON        CLOUDY    48  48 100 CALM      30.09R FOG
CODY           PTSUNNY   66  46  48 CALM      29.93R
GREYBULL       CLOUDY    68  54  60 SE3       29.84R
WORLAND        MOSUNNY   70  49  47 SW3       29.85R
SHERIDAN       CLOUDY    72  47  40 NW17G24   29.83R
BUFFALO        PTSUNNY   71  46  40 N20G28    29.87R
GILLETTE       PTSUNNY   74  44  34 NW15      29.81R
HULETT         FAIR      72  50  46 MISG      29.78
NEWCASTLE      FAIR      73  46  38 MISG      29.82

$$
WYZ014>020-022>026-101>103-201600-
CENTRAL WYOMING

CITY           SKY/WX    TMP DP  RH WIND       PRES   REMARKS
BIG PINEY      PTSUNNY   52  44  74 E5        30.10R
PINEDALE       MOSUNNY   50  43  76 CALM      30.11R
DUBOIS         FAIR      54  43  66 NW13      30.06R
LANDER         SUNNY     66  46  48 SE6       29.94R
RIVERTON       SUNNY     65  44  46 NW10      29.94R
CASPER         SUNNY     69  48  47 SW18G28   29.92R
DOUGLAS        PTSUNNY   69  52  54 SW7       29.89S

$$
WYZ021-027>030-104>119-201600-
SOUTHERN WYOMING

CITY           SKY/WX    TMP DP  RH WIND       PRES   REMARKS
EVANSTON       PTSUNNY   55  52  89 SW14      30.12R
KEMMERER       PTSUNNY   55  46  71 SW3       30.12R
FORT BRIDGER   FAIR      57  52  81 SW10      30.12S
ROCK SPRINGS   CLOUDY    57  49  74 W15       30.08R
DIXON          CLOUDY    59  56  88 SW7       30.11R
RAWLINS        CLOUDY    59  53  80 SW12      30.07R
SARATOGA       CLOUDY    57  52  82 MISG      30.09R
LARAMIE        SUNNY     63  50  62 W16G23    30.07R
CHEYENNE       SUNNY     72  48  42 W22G35    29.98R
TORRINGTON     MOSUNNY   73  55  53 W6        29.85R
PINE BLUFFS    FAIR      72  54  53 NW6       29.93S

$$


USA.gov is the U.S. government's official web portal to all federal, state and local government web resources and services.